Location: Newark
(49.8348°N, 24.0280°E)
Time: 05:15:53
(UTC+00:00)

Transit 2A - Pass Details

Date: 26 January 2020
Orbit: 600 x 959 km, 66.7° (Epoch: 17 February)

Event Time Altitude Azimuth Distance (km) Brightness Sun altitude
Rises 20:46:05 0° 279° (W) 2,851 - -51.8°
Reaches altitude 10° 20:49:23 10° 306° (NW) 1,953 - -52.2°
Maximum altitude 20:51:38 14° 337° (NNW) 1,732 - -52.5°
Drops below altitude 10° 20:53:55 10° 8° (N) 1,988 - -52.7°
Sets 20:57:21 0° 35° (NE) 2,944 - -53.1°
